Flag for Switzerland Weather past 2 weeks in Carouge, Geneva, Switzerland

Now
63 °F

Passing clouds.


Feels Like: 63 °F
Forecast: 46 / 73 °F
Wind: 18 mph from Northeast

Location: Geneve-Cointrin

Current Time: Sep 2, 2014 at 12:09:47 PM

Latest Report: Sep 2, 2014 at 11:00 AM


Visibility: 44 mi

Pressure: 30.06 "Hg

Humidity: 53%

Dew point: 46 °F

Location of CarougeLocation

Historic Weather in Carouge — Graph

°F

Carouge temperature yesterday

Maximum temperature yesterday: 67 °F (at 4:00 PM)
Minimum temperature yesterday: 54 °F (at 7:00 AM)
Average temperature yesterday: 61 °F

Past Weeks' High & Low Weather Summary

 TemperatureHumidityPressure
High78 °F (Aug 28, 6:00 PM)92% (Aug 26, 3:00 PM)30.16 "Hg (Aug 26, 3:00 PM)
Low49 °F (Aug 25, 6:00 AM)36% (Aug 18, 4:00 PM)29.83 "Hg (Aug 18, 8:00 PM)
Average63 °F68%30.01 "Hg
* Reported Aug 18 10:00 AM — Sep 2 10:00 AM, Carouge, Weather by CustomWeather, © 2014

Note: Actual official high and low records may vary slightly from our data, if they occured in-between our weather recording intervals... More about our weather records

Advertising

Carouge weather history for previous 24 hours

 ConditionsComfort  
Time TempWeatherWind HumidityBarometerVisibility
10:00 AM
Sep 2
61 °FCool.16 mph62%30.07 "HgN/A
9:00 AM59 °FCool.13 mph74%30.08 "HgN/A
8:00 AM57 °FPassing clouds.10 mph80%30.09 "Hg19 mi
7:00 AM53 °FCool.2 mph81%30.09 "HgN/A
6:00 AM54 °FCool.3 mph77%30.09 "HgN/A
5:00 AM55 °FPassing clouds.5 mph74%30.09 "Hg43 mi
4:00 AM56 °FCool.6 mph72%30.08 "HgN/A
3:00 AM56 °FCool.6 mph74%30.09 "HgN/A
2:00 AM56 °FPassing clouds.5 mph73%30.10 "Hg43 mi
1:00 AM58 °FCool.10 mph69%30.09 "HgN/A
12:00 AM59 °FCool.12 mph67%30.10 "HgN/A
11:00 PM
Sep 1
60 °FClear.12 mph64%30.10 "Hg43 mi
10:00 PM60 °FCool.9 mph64%30.09 "HgN/A
9:00 PM61 °FRefreshingly cool.9 mph59%30.09 "HgN/A
8:00 PM63 °FPassing clouds.13 mph53%30.06 "Hg47 mi
7:00 PM66 °FMild.14 mph47%30.06 "HgN/A
6:00 PM67 °FMild.13 mph42%30.06 "HgN/A
4:00 PM67 °FMild.16 mph47%30.07 "HgN/A
3:00 PM67 °FMild.18 mph48%30.07 "HgN/A
2:00 PM66 °FPassing clouds.16 mph49%30.09 "Hg43 mi
1:00 PM66 °FMild.16 mph49%30.09 "HgN/A
12:00 PM65 °FMild.13 mph51%30.09 "HgN/A
Weather by CustomWeather, © 2014

See weather overviewHow to use our weather pages